Back to catalog

DELTA 1 DEB

AlivePO
NORAD 8981·DEBRIS·🇺🇸 United States

Launched Jan 22, 1975 from Vandenberg Space Force Base

Loading…

Next Passes (next 24 hours)

TLE

FreshSource: Space-Track

Epoch: Sep 14, 2026, 09:34 UTC

1 08981U 75004BP  26257.39892643  .00001895  00000-0  47086-3 0  9999
2 08981  97.6712  51.0204 0110089 224.0880 135.1500 14.49239456628665

Track DELTA 1 DEB in real time with AllMySat

Download on the App Store